Location: Bun Machan
(52.1403°N, 7.3744°W)
Time: 02:09:06
(UTC+00:00)

Cosmos 405 Rocket - Pass Details

Date: 14 July 2020
Orbit: 489 x 555 km, 81.3° (Epoch: 04 August)

Event Time Altitude Azimuth Distance (km) Brightness Sun altitude
Exits shadow 02:28:03 19° 216° (SW) 1,249 4.0 -12.2°
Maximum altitude 02:30:31 52° 286° (WNW) 642 3.1 -12.1°
Drops below altitude 10° 02:34:12 10° 4° (N) 1,719 6.5 -11.8°
Sets 02:36:22 0° 10° (N) 2,600 7.8 -11.7°
